Date String (YYYY-MM-DD hh:mm:ss) UTC,Instrument flags,Ambient pressure (hPa),Sample flow (lpm),Bypass flow (lpm),Sample temperature (°C),Ambient temperature (°C),ASC tube jacket temperature (°C),LED temperature (°C),Box temperature (°C),Sample RH (%),Span deviation,Mass concentration (μg/m³),Mass concentration (μg/m³),Mass concentration (μg/m³)
DateTimeUTC,F1_M11,P_M11,Q1_M11,Q2_M11,T1_M11,T2_M11,T3_M11,T4_M11,T5_M11,U1_M11,ZSPAN_M11,X2_M11,X0_M11,X1_M11
2021-11-16 12:00:00,,0818.4,5.01,0.00,29.5,28.5,00.0,38.6,31.2,08.1,0000.0,0000.92,0009.04,0000.32
2021-11-16 12:01:00,,0817.9,4.99,0.00,29.5,28.5,00.0,38.6,31.2,08.2,0000.0,0000.98,0009.45,0000.32
2021-11-16 12:02:00,,0817.9,5.00,0.00,29.5,28.4,00.0,38.6,31.2,08.3,0000.0,0001.03,0009.56,0000.32
2021-11-16 12:03:00,,0818.4,5.00,0.00,29.5,28.4,00.0,38.6,31.3,08.4,0000.0,0001.04,0009.24,0000.32
2021-11-16 12:04:00,,0818.3,4.99,0.00,29.5,28.4,00.0,38.6,31.2,08.4,0000.0,0001.06,0009.29,0000.33
2021-11-16 12:05:00,,0818.1,5.00,0.00,29.5,28.4,00.0,38.6,31.2,08.4,0000.0,0001.03,0009.23,0000.34
2021-11-16 12:06:00,,0817.9,5.01,0.00,29.5,28.4,00.0,38.6,31.2,08.4,0000.0,0001.03,0009.24,0000.34
2021-11-16 12:07:00,,0818.0,4.99,0.00,29.5,28.4,00.0,38.6,31.2,08.5,0000.0,0001.08,0009.42,0000.35
2021-11-16 12:08:00,,0818.0,4.99,0.00,29.5,28.4,00.0,38.6,31.2,08.5,0000.0,0001.13,0009.61,0000.35
2021-11-16 12:09:00,,0817.9,5.02,0.00,29.5,28.4,00.0,38.5,31.2,08.4,0000.0,0001.12,0009.57,0000.35
2021-11-16 12:10:00,,0817.9,4.99,0.00,29.5,28.4,00.0,38.5,31.2,08.3,0000.0,0001.01,0007.25,0000.35
2021-11-16 12:11:00,,0818.0,4.99,0.00,29.5,28.4,00.0,38.5,31.1,08.4,0000.0,0000.79,0003.34,0000.34
2021-11-16 12:12:00,,0818.0,5.00,0.00,29.4,28.4,00.0,38.5,31.1,08.5,0000.0,0000.78,0002.73,0000.34
2021-11-16 12:13:00,,0817.8,5.00,0.00,29.4,28.4,00.0,38.5,31.1,08.4,0000.0,0000.75,0002.86,0000.34
2021-11-16 12:14:00,,0817.8,5.01,0.00,29.4,28.3,00.0,38.5,31.1,08.1,0000.0,0000.87,0004.66,0000.35
2021-11-16 12:15:00,,0817.8,4.99,0.00,29.4,28.3,00.0,38.5,31.1,08.2,0000.0,0000.94,0007.22,0000.36
2021-11-16 12:16:00,,0818.0,5.01,0.00,29.4,28.3,00.0,38.5,31.1,08.4,0000.0,0000.96,0007.71,0000.37
2021-11-16 12:17:00,,0817.9,5.00,0.00,29.4,28.3,00.0,38.5,31.1,08.6,0000.0,0000.97,0007.70,0000.37
2021-11-16 12:18:00,,0818.0,5.00,0.00,29.4,28.2,00.0,38.5,31.0,08.4,0000.0,0000.96,0007.62,0000.37
2021-11-16 12:19:00,,0817.1,5.01,0.00,29.4,28.2,00.0,38.5,31.1,08.4,0000.0,0001.10,0014.11,0000.38
2021-11-16 12:20:00,,0817.7,5.00,0.00,29.3,28.2,00.0,38.4,31.0,08.4,0000.0,0001.27,0020.34,0000.40
2021-11-16 12:21:00,,0818.0,5.00,0.00,29.3,28.2,00.0,38.4,31.0,08.5,0000.0,0001.33,0020.58,0000.39
2021-11-16 12:22:00,,0817.8,5.00,0.00,29.3,28.2,00.0,38.4,31.1,08.2,0000.0,0001.31,0020.70,0000.37
2021-11-16 12:23:00,,0817.9,5.01,0.00,29.3,28.2,00.0,38.4,31.1,08.1,0000.0,0001.29,0020.68,0000.37
2021-11-16 12:24:00,,0817.8,4.99,0.00,29.3,28.2,00.0,38.4,31.0,08.1,0000.0,0001.29,0020.50,0000.37
2021-11-16 12:25:00,,0817.7,5.00,0.00,29.3,28.2,00.0,38.4,31.0,08.4,0000.0,0001.17,0019.46,0000.35
2021-11-16 12:26:00,,0817.9,5.00,0.00,29.3,28.2,00.0,38.4,31.0,08.4,0000.0,0001.08,0017.86,0000.34
2021-11-16 12:27:00,,0817.9,5.00,0.00,29.3,28.2,00.0,38.4,31.0,08.3,0000.0,0001.08,0017.54,0000.33
2021-11-16 12:28:00,,0818.0,5.00,0.00,29.3,28.2,00.0,38.4,31.0,08.4,0000.0,0001.09,0017.55,0000.33
2021-11-16 12:29:00,,0818.1,5.01,0.00,29.3,28.2,00.0,38.4,31.0,08.4,0000.0,0001.04,0017.48,0000.32
2021-11-16 12:30:00,,0818.0,5.00,0.00,29.3,28.2,00.0,38.4,31.0,08.4,0000.0,0000.84,0008.79,0000.31
2021-11-16 12:31:00,,0818.0,5.00,0.00,29.3,28.2,00.0,38.3,31.0,08.5,0000.0,0000.67,0002.26,0000.29
2021-11-16 12:32:00,,0818.0,5.01,0.00,29.3,28.2,00.0,38.3,31.0,08.3,0000.0,0000.61,0001.76,0000.29
2021-11-16 12:33:00,,0817.9,5.00,0.00,29.2,28.2,00.0,38.3,31.0,08.4,0000.0,0000.56,0001.51,0000.28
2021-11-16 12:34:00,,0817.9,5.00,0.00,29.2,28.2,00.0,38.3,31.0,08.5,0000.0,0000.55,0001.45,0000.28
2021-11-16 12:35:00,,0818.0,5.00,0.00,29.2,28.2,00.0,38.3,31.0,08.5,0000.0,0000.56,0001.44,0000.28
2021-11-16 12:36:00,,0817.9,5.00,0.00,29.2,28.1,00.0,38.3,30.9,08.3,0000.0,0000.58,0001.49,0000.28
2021-11-16 12:37:00,,0817.7,5.01,0.00,29.2,28.1,00.0,38.3,30.9,08.2,0000.0,0000.60,0001.54,0000.28
2021-11-16 12:38:00,,0817.9,5.00,0.00,29.2,28.1,00.0,38.3,30.9,08.0,0000.0,0000.56,0001.44,0000.28
2021-11-16 12:39:00,,0818.0,5.00,0.00,29.2,28.0,00.0,38.3,30.9,08.3,0000.0,0000.56,0001.44,0000.28
2021-11-16 12:40:00,,0818.0,4.99,0.00,29.2,28.0,00.0,38.3,30.9,08.5,0000.0,0000.57,0001.44,0000.29
2021-11-16 12:41:00,,0818.0,5.01,0.00,29.2,28.1,00.0,38.3,30.9,08.7,0000.0,0000.59,0001.57,0000.29
2021-11-16 12:42:00,,0817.8,5.01,0.00,29.2,28.1,00.0,38.3,30.9,08.6,0000.0,0000.60,0001.59,0000.29
2021-11-16 12:43:00,,0818.0,5.00,0.00,29.2,28.0,00.0,38.2,30.9,08.3,0000.0,0000.62,0002.42,0000.29
2021-11-16 12:44:00,,0818.0,5.01,0.00,29.1,28.0,00.0,38.2,30.8,08.4,0000.0,0000.63,0002.49,0000.30
2021-11-16 12:45:00,,0817.9,5.00,0.00,29.1,28.1,00.0,38.2,30.8,08.3,0000.0,0000.64,0002.77,0000.30
2021-11-16 12:46:00,,0818.0,5.00,0.00,29.1,28.1,00.0,38.2,30.8,08.3,0000.0,0000.59,0002.68,0000.30
2021-11-16 12:47:00,,0817.8,4.99,0.00,29.1,28.1,00.0,38.2,30.8,08.5,0000.0,0000.54,0002.89,0000.29
2021-11-16 12:48:00,,0817.8,5.00,0.00,29.1,28.0,00.0,38.2,30.8,08.5,0000.0,0000.52,0002.99,0000.29
2021-11-16 12:49:00,,0817.8,5.00,0.00,29.1,28.0,00.0,38.2,30.9,08.5,0000.0,0000.51,0002.98,0000.29
2021-11-16 12:50:00,,0817.9,5.00,0.00,29.1,28.0,00.0,38.2,30.8,08.5,0000.0,0000.51,0002.97,0000.28
2021-11-16 12:51:00,,0817.9,5.01,0.00,29.1,28.0,00.0,38.2,30.8,08.6,0000.0,0000.49,0002.92,0000.27
2021-11-16 12:52:00,,0817.7,4.99,0.00,29.1,28.0,00.0,38.2,30.8,08.7,0000.0,0000.52,0002.95,0000.27
2021-11-16 12:53:00,,0817.6,5.01,0.00,29.1,28.0,00.0,38.2,30.8,08.6,0000.0,0000.51,0002.91,0000.27
2021-11-16 12:54:00,,0817.6,5.00,0.00,29.1,28.0,00.0,38.2,30.8,08.6,0000.0,0000.48,0001.98,0000.27
2021-11-16 12:55:00,,0817.5,5.00,0.00,29.1,28.0,00.0,38.2,30.8,08.7,0000.0,0000.48,0001.93,0000.26
2021-11-16 12:56:00,,0817.7,4.99,0.00,29.1,28.1,00.0,38.2,30.7,08.7,0000.0,0000.50,0001.72,0000.25
2021-11-16 12:57:00,,0817.3,5.00,0.00,29.1,28.1,00.0,38.1,30.7,08.7,0000.0,0000.49,0001.75,0000.26
2021-11-16 12:58:00,,0817.2,5.00,0.00,29.1,28.1,00.0,38.1,30.8,08.4,0000.0,0000.53,0002.07,0000.27
2021-11-16 12:59:00,,0817.5,5.01,0.00,29.0,28.0,00.0,38.1,30.8,08.3,0000.0,0000.57,0001.95,0000.28
